Simultaneous Nadir Overpasses (SNOs) Predictions

Prediction of SNOs between AQUA and METOP-C Satellite Orbit:

Table of predicted SNOs for the next 14.0 days since TLE Epoch: 8/12/2023
Index Date (AQUA) Time (AQUA) Lat,Lon (AQUA) SZA (AQUA ) Date (METOP-C) Time (METOP-C) Lat,Lon (METOP-C) SZA (METOP-C ) Distance(km) Time Diff (sec)
1 08/13/2023 13:03:47 -74.64, 160.26 120.02 08/13/2023 13:02:35 -74.64, 160.31 120.02 1.54 72
2 08/13/2023 13:53:13 74.70, -32.24 60.05 08/13/2023 13:53:14 74.70, -32.18 60.06 1.53 1
3 08/13/2023 14:42:40 -74.87, 134.98 119.76 08/13/2023 14:43:52 -74.87, 135.59 119.79 17.76 72
4 08/16/2023 06:56:06 -74.65,-107.80 119.17 08/16/2023 06:55:41 -74.67,-107.88 119.14 3.23 25
5 08/16/2023 07:45:32 74.72, 59.68 60.92 08/16/2023 07:46:20 74.74, 59.64 60.94 3.37 48
6 08/18/2023 23:58:59 74.65, 176.52 61.69 08/18/2023 23:58:06 74.64, 176.42 61.70 2.75 53
7 08/19/2023 00:48:24 -74.71, -15.99 118.23 08/19/2023 00:48:46 -74.70, -16.08 118.24 2.83 22
8 08/21/2023 17:01:48 -74.48, 101.24 117.60 08/21/2023 17:00:37 -74.40, 100.17 117.65 33.31 71
9 08/21/2023 17:51:17 74.71, -91.67 62.65 08/21/2023 17:51:11 74.72, -91.66 62.67 1.18 6
10 08/21/2023 18:40:42 -74.76, 75.83 117.28 08/21/2023 18:41:51 -74.77, 75.82 117.27 1.06 69
11 08/24/2023 10:54:08 -74.69,-167.30 116.46 08/24/2023 10:53:37 -74.70,-167.30 116.44 2.12 31
12 08/24/2023 11:43:34 74.76, 0.16 63.64 08/24/2023 11:44:16 74.78, 0.23 63.65 3.26 42



Historial Predications of SNOs between AQUA and METOP-C
